星链-33654 (STARLINK-33654)

导读

STARLINK-33654是美国太空探索技术公司SpaceX星链星座的一颗卫星,星链旨在构建全球卫星互联网,为全球提供高速宽带网络服务。该卫星于2025年4月6日在美国发射升空,是星链星座低轨卫星组网部署过程中的一颗卫星,入轨后将参与星链系统运行,补充、完善星座服务能力。

Basic Information
目录编号:
63466
目录名称:
STARLINK-33654
国际标识:
2025-070G
轨道中心:
EARTH
卫星名称:
星链-33654
卫星全名:
星链-33654 (STARLINK-33654)
卫星状态:
在轨 (已飞行517 天)
发射日期:
2025-04-06 UTC
国别 :
美国 (US)
星等 :
--
Orbit Information
数据来源 国际轨道数据 AOE轨道数据
星历时间 2026-09-05T13:21:29+0800
4小时前
查看轨道信息
2026-09-01T08:00:00+0800
4天前
查看轨道信息
半长轴 6861.155km 6861.197km
偏心率 0.0001384 0.0001747
轨道倾角 43.002° 43.001°
近地点辐角 260.622° 284.572°
升交点赤经 325.904° 349.755°
平近点角 99.447° 223.396°
近地点 482.068km 481.861km
远地点 483.968km 484.259km
周期 94.266分钟 94.267分钟
每日圈数 15.275904 15.275765
Detailed Information
固有亮度:
5
最大亮度:
2.5
卫星平台:
Starlink V1.0
覆盖范围:
全球
运营商:
太空探索技术公司
运营商所在国:
美国
制造商(研发单位):
太空探索技术公司
制造商所在国:
美国
使用方式:
暂无
Satellite Introduction
Starlink 计划是 SpaceX 推出的全球卫星互联网项目,通过发射低轨道卫星,为全球尤其是偏远地区提供高速、低延迟的互联网服务。自 2019 年起,Starlink 已部署数千颗卫星,旨在缩小全球数字鸿沟,推动互联网普及。该项目还为军事、航空等行业提供通信支持,带来广泛经济效益。
2D Orbit Map
3D Orbit Map
Orbit Altitude Analysis Chart
Orbit Inclination Analysis Chart
Orbit Comprehensive Analysis Chart
View Comprehensive Chart
Conjunction Data List
Event ID Objects TCA Miss Dist (km) Collision Risk Probability Collision Risk Index (CRI) Action
CDM_260906-180005-798306-346621
2026-09-06T
18:00:29+0000
0.259 km
中距离
4.715437E-4 高风险 0.88
CDM_260906-162605-798306-346621
2026-09-06T
16:26:20+0000
1.212 km
极远距离
8.729728E-6 低风险 0.54
CDM_260906-210806-346606-650921
2026-09-06T
21:08:27+0000
1.308 km
极远距离
6.621286E-6 低风险 0.51
CDM_260907-080306-346606-549021
OBJECT-C (65490)
2026-09-07T
08:03:03+0000
1.859 km
极远距离
3.203721E-6 低风险 0.45
CDM_260906-193405-798306-346621
2026-09-06T
19:34:38+0000
1.663 km
极远距离
3.121031E-6 低风险 0.45
CDM_260906-013206-346606-581121
2026-09-06T
01:32:58+0000
2.552 km
极远距离
1.627187E-6 低风险 0.39
CDM_260905-055406-346606-580721
2026-09-05T
05:54:29+0000
2.628 km
极远距离
1.54005E-6 低风险 0.39
CDM_260906-145205-798306-346621
2026-09-06T
14:52:10+0000
2.597 km
极远距离
1.117519E-6 低风险 0.36
CDM_260901-104905-477106-346621
2026-09-01T
10:49:06+0000
2.932 km
极远距离
5.576352E-7 极低风险 0.3